Regional Weather Roundup
Issued by NWS Goodland, KS

Home | Current Version | Previous Version | Graphics & Text | Print | Product List | Glossary On
Versions: 1 2 3 4 5 6 7 8 9 10 11 12 13 14 15 16 17 18 19 20 21 22 23 24 25 26 27 28 29 30 31 32 33 34 35 36 37 38 39 40 41 42 43 44 45 46 47 48 49 50
594
ASUS43 KGLD 240259
RWRGLD

GOODLAND FORECAST AREA HOURLY WEATHER ROUNDUP
NATIONAL WEATHER SERVICE GOODLAND KS
900 PM MDT MON MAY 23 2016

...OFFICIAL OBSERVATIONS...

CITY           SKY/WX    TMP DP  RH WIND       PRES   REMARKS
GOODLAND KS    CLEAR     60  51  72 NE7       29.82R
HILL CITY KS   CLEAR     68  63  84 CALM      29.77R
IMPERIAL NEB   PTCLDY    60  44  55 N17       29.85R
MCCOOK NEB     CLEAR     62  53  72 NW8       29.81R
AKRON CO       CLOUDY    55  46  71 NE8       29.89R
BURLINGTON CO  CLEAR     61  47  59 E10       29.84R
LIMON CO       CLEAR     51  45  79 VRB6      29.88R
$$

...UNOFFICIAL OBSERVATIONS...

CITY           SKY/WX    TMP DP  RH WIND       PRES   REMARKS
COLBY KS       CLEAR     63  61  94 N8        29.83R
LENORA KS        N/A     72  32  23 MISG        N/A
NORTON KS      CLEAR     68  57  68 CALM      29.78R HAZE
SHARON SPRINGS   N/A     64  56  77 NE6         N/A
TRIBUNE KS     PTCLDY    66  57  72 NE9       29.79
KIT CARSON CO    N/A     64  50  60 MISG        N/A
YUMA CO          N/A     57  47  69 E8          N/A
$$




USA.gov is the U.S. government's official web portal to all federal, state and local government web resources and services.